Back to catalog

STARLINK-11326

AliveCommunicationsVLEO
NORAD 62010·PAYLOAD·🇺🇸 United States

Launched Nov 18, 2024 from Vandenberg Space Force Base

Loading…

Next Passes (next 24 hours)

TLE

FreshSource: CelesTrak SupGP

Epoch: Sep 15, 2026, 03:39 UTC

1 62010C 24213C   26258.15256944 -.00041628  00000+0 -34278-3 0  2587
2 62010  53.1570 187.3314 0001202  82.7376 208.9115 15.69738642    15

Track STARLINK-11326 in real time with AllMySat

Download on the App Store